2022-152B

Last updated on Tue Nov 15 2022 00:02:04 GMT+0000 (Coordinated Universal Time)

1 54238U 22152B 22317.59206744 -.00002470 78170-5 00000+0 0 9997 2 54238 41.8191 28.2331 0110906 189.9453 322.0923 16.07382287 233
UTC large
Height (km)
Speed (km/s)
/
Latitude / Longitude
Inclination (degrees)
Orbital Period (minutes)
Azimuth
Elevation
Range (km)
Doppler Factor

Next 0 passes for location: London (51.5072 / 0.1276)

Sorry there are no passes over London.